Solander Island, British Columbia

6:02 PM PDT on May 25, 2018 (GMT -0700)
Solander Island

Weather History for CWRU - December, 2012

Change the Weather History Date:

Monday, December 24, 2012

  Actual Average Record
Temperature  
Mean Temperature 40 °F -  
Max Temperature 43 °F - - ()
Min Temperature 37 °F - - ()
Degree Days  
Heating Degree Days 25    
Moisture  
Dew Point 35 °F    
Average Humidity 81    
Maximum Humidity 93    
Minimum Humidity 67    
Precipitation  
Precipitation 0.02 in - - ()
Sea Level Pressure  
Sea Level Pressure 29.92 in    
Wind  
Wind Speed 23 mph ()    
Max Wind Speed 59 mph    
Max Gust Speed 70 mph    
T = Trace of Precipitation, MM = Missing Value Source: Averaged Metar Reports

Daily Weather History Graph

Daily Weather History Graph

Search for Another Location

Airport or City:

Astronomy

Dec. 24, 2012 Rise Set
Actual Time 8:29 AM PST 4:33 PM PST
Civil Twilight 7:51 AM PST 5:12 PM PST
Nautical Twilight 7:09 AM PST 5:53 PM PST
Astronomical Twilight 6:29 AM PST 6:33 PM PST
Moon 2:11 PM PST (12/24) 5:06 AM PST (12/24)
Length of Visible Light 9h 21m
Length of Day
8h 03m
Waxing Gibbous, 89% of the Moon is Illuminated
Dec 24
Waxing Gibbous
Dec 28
Full
Jan 4
Last Quarter
Jan 11
New
Jan 18
First Quarter

Hourly Weather History & Observations

Time (PST) Temp. Windchill Dew Point Humidity Pressure Visibility Wind Dir Wind Speed Gust Speed Precip Events Conditions
12:00 AM 39.7 °F 29.0 °F 36.0 °F 86% 29.86 in - NW 25.3 mph - N/A   Unknown
1:00 AM 39.7 °F 28.3 °F 35.6 °F 85% 29.88 in - NW 28.8 mph - N/A   Unknown
2:00 AM 39.4 °F 27.9 °F 34.7 °F 83% 29.91 in - NW 28.8 mph - N/A   Unknown
3:00 AM 38.7 °F 27.1 °F 33.1 °F 80% 29.94 in - NW 27.6 mph - N/A   Unknown
5:00 AM 37.9 °F 28.5 °F 31.6 °F 78% 29.98 in - NW 17.3 mph - N/A   Unknown
6:00 AM 37.8 °F 29.8 °F 33.4 °F 84% 29.99 in - North 12.7 mph - N/A   Unknown
7:00 AM 37.8 °F 29.4 °F 34.0 °F 86% 29.99 in - NNW 13.8 mph - N/A   Unknown
8:00 AM 37.8 °F 31.8 °F 33.1 °F 83% 30.02 in - NNW 8.1 mph - N/A   Unknown
9:00 AM 37.9 °F 32.7 °F 34.2 °F 86% 30.03 in - NNE 6.9 mph - N/A   Unknown
10:00 AM 39 °F - 34 °F 77% 30.04 in - SE 5.8 mph - -  
10:00 AM 38.7 °F 34.3 °F 34.3 °F 84% 30.04 in - SE 5.8 mph - N/A   Unknown
11:00 AM 39.2 °F 30.8 °F 35.4 °F 86% 30.03 in - ESE 15.0 mph 21.9 mph N/A   Unknown
12:00 PM 39.4 °F 29.8 °F 37.4 °F 93% 30.03 in - ESE 19.6 mph 25.3 mph N/A   Unknown
1:00 PM 39.7 °F 30.3 °F 37.6 °F 92% 30.01 in - ESE 19.6 mph 25.3 mph N/A   Unknown
2:00 PM 41.9 °F 32.1 °F 31.8 °F 67% 29.99 in - SE 24.2 mph 32.2 mph N/A   Unknown
3:00 PM 42.1 °F 32.8 °F 33.1 °F 70% 29.97 in - ESE 21.9 mph 31.1 mph N/A   Unknown
4:00 PM 42 °F - 36 °F 70% 29.93 in - ESE 41.4 mph - -  
4:00 PM 41.5 °F 28.9 °F 35.6 °F 79% 29.93 in - ESE 41.4 mph 49.5 mph N/A   Unknown
5:00 PM 43.3 °F 33.6 °F 33.4 °F 68% 29.91 in - SE 26.5 mph 39.1 mph N/A   Unknown
6:00 PM 43.0 °F 31.4 °F 37.0 °F 80% 29.87 in - ESE 38.0 mph 49.5 mph N/A   Unknown
7:00 PM 42.8 °F 30.3 °F 36.9 °F 80% 29.84 in - ESE 44.9 mph 54.1 mph N/A   Unknown
8:00 PM 42.8 °F 29.7 °F 36.9 °F 80% 29.78 in - ESE 50.6 mph 62.1 mph N/A   Unknown
9:00 PM 42.4 °F 28.6 °F 35.4 °F 76% 29.75 in - ESE 56.4 mph 69.0 mph N/A   Unknown
10:00 PM 40 °F - 36 °F 81% 29.73 in - ESE 57.5 mph - -  
10:00 PM 39.7 °F 24.6 °F 36.1 °F 87% 29.73 in - ESE 57.5 mph 70.2 mph 0.02 in   Unknown
11:00 PM 40.6 °F 25.8 °F 37.4 °F 88% 29.71 in - ESE 58.7 mph 69.0 mph 0.05 in   Unknown